Location: Lombard
(41.8800°N, 88.0080°W)
Time: 05:51:36
(UTC-05:00)

Vanguard 2 Rocket - Pass Details

Date: 24 February 2024
Orbit: 555 x 3307 km, 32.9° (Epoch: 13 April)

Event Time Altitude Azimuth Distance (km) Brightness Sun altitude
Rises 17:09:27 0° 265° (W) 5,121 13.0 3.9°
Reaches altitude 10° 17:12:20 10° 261° (W) 4,434 12.9 3.4°
Maximum altitude 17:25:21 60° 186° (S) 3,069 9.8 1.1°
Drops below altitude 10° 17:44:31 10° 114° (ESE) 6,256 10.7 -2.4°
Sets 17:49:32 0° 111° (ESE) 7,268 11.0 -3.3°
